Vorticity
3 5 1 2 2 3 3 4 5 6 3 4 7 5 5 5 6 6 6 4 2 3 2 2 3 4 4 5 5 6 6 6 7 6 8 7 9 7 6 5 4 3 6
4 4 3 1 2 3 4 3 4 5 3 4 5 4 5 7 4 5 6 3 2 2 2 2 2 3 4 3 4 4 4 5 5 5 4 5 5 6 5 5 5 4 3
6 4 4 3 1 3 3 3 4 4 3 4 4 4 4 7 5 5 6 3 2 3 2 2 2 2 2 2 2 2 2 3 2 3 3 4 5 5 4 5 6 6 6
4 5 4 3 3 2 2 4 3 5 5 3 3 3 3 5 5 6 5 3 3 3 3 2 2 2 1 0 1 0 1 1 2 2 2 2 3 4 5 5 5 6 7
3 6 5 4 3 3 2 3 3 4 5 5 4 2 4 5 4 5 5 3 2 3 4 3 1 0 1 -0 0 0 0 0 -0 1 3 2 2 2 4 5 4 5 5
6 8 5 5 5 3 2 2 2 4 4 5 6 4 5 5 6 4 4 4 2 2 3 3 3 2 -0 -2 2 0 1 1 3 2 1 2 3 3 3 3 4 5 5
3 5 8 6 5 5 4 3 2 3 4 5 6 5 5 6 6 5 3 4 3 2 3 2 3 3 2 3 3 3 5 7 6 5 4 4 4 4 4 4 4 5 5
7 4 3 7 6 5 5 4 2 2 3 4 6 5 4 5 5 6 4 6 4 3 4 4 6 6 7 8 8 7 5 5 4 5 5 5 5 4 4 5 5 5 5
6 6 5 5 6 7 5 5 3 2 3 4 6 6 4 5 5 6 5 5 6 5 6 5 5 6 5 4 5 7 8 9 7 5 6 4 4 5 4 4 4 5 5
4 7 4 6 4 7 6 7 5 1 3 4 7 6 5 6 6 6 4 5 5 4 4 4 6 8 8 10 10 9 8 9 8 9 9 10 7 6 6 6 4 5 5
5 7 7 4 6 6 8 5 6 2 2 5 6 7 6 7 5 6 6 4 6 8 8 8 9 8 9 9 10 8 9 8 9 9 9 9 11 10 8 9 8 6 6
9 6 15 5 6 6 7 7 7 3 2 4 6 7 7 7 5 5 7 7 5 5 6 8 10 12 9 7 7 8 7 6 5 5 5 6 7 9 10 9 8 9 9
23 18 26 13 9 9 9 7 5 4 2 3 5 7 7 8 9 10 7 6 5 6 7 7 3 4 4 3 2 2 3 5 4 4 3 3 5 3 4 7 8 8 8
9 -0 32 12 6 9 8 7 5 2 1 3 4 5 9 9 7 6 6 6 5 6 5 4 4 4 7 6 6 2 2 3 4 4 4 4 4 4 4 4 4 7 9
22 26 35 14 11 17 11 8 6 6 1 2 5 5 8 7 5 5 4 5 3 4 3 3 2 -0 -1 3 3 1 3 1 4 1 4 2 4 6 6 5 6 4 1
34 60 19 8 14 22 7 5 7 5 4 2 5 5 5 4 4 4 2 3 4 3 3 2 2 1 -0 0 3 2 1 1 3 2 0 2 -0 3 4 4 5 7 5
37 33 45 9 6 9 9 7 4 4 4 4 5 5 4 2 2 2 1 1 1 1 1 2 2 1 -0 0 0 -2 1 2 4 4 2 2 2 5 3 2 4 6 4
42 38 82 47 16 4 6 6 5 5 4 4 5 3 3 3 1 1 0 0 1 3 3 1 -0 1 3 1 1 2 3 3 2 4 5 6 1 -1 4 2 -0 2 6
26 23 10 25 30 8 10 4 5 3 2 3 4 3 2 3 3 2 1 2 2 2 2 4 1 3 5 6 4 0 5 4 0 3 4 7 -1 6 1 4 2 2 2
-4 52 16 9 12 18 14 7 4 5 2 3 3 2 1 2 2 1 0 2 5 4 4 2 2 3 2 2 4 -0 0 1 10 -3 1 3 12 8 1 3 3 4 3
8 7 29 21 39 20 6 7 6 1 3 3 1 1 1 1 1 0 2 0 -4 -5 2 7 6 -2 1 1 1 8 12 8 -2 -1 -11 0 2 1 10 3 4 3 4
3 2 -11 78 2 17 18 8 8 7 4 2 4 1 0 0 -0 0 5 5 3 10 2 1 -2 2 -2 3 7 2 4 -4 -0 4 -11 16 7 5 2 6 4 2 2
-6 7 30 72 18 13 9 14 8 6 2 2 4 3 0 -1 -1 0 -0 1 6 -2 -9 -12 14 5 7 2 -0 -2 5 7 4 4 -1 6 10 1 2 8 5 4 5
-4 -8 8 6 60 15 16 16 17 13 6 6 3 3 3 1 -0 -0 1 1 3 8 9 6 -5 12 7 4 7 1 6 5 6 -2 7 1 1 4 6 7 5 5 6
24 11 17 6 43 -0 34 -24 32 11 11 3 4 3 1 2 1 1 0 2 3 -1 5 4 11 -8 -1 -0 -1 10 -17 -3 -6 -7 6 5 -18 17 10 5 4 5 4
19 16 3 8 30 34 16 11 19 12 6 7 7 4 4 2 3 3 7 8 7 7 4 3 2 -7 -11 -4 -4 5 -3 4 6 19 -1 -3 7 13 7 7 5 5 8
Height
5867 5869 5871 5873 5875 5877 5879 5880 5881 5882 5884 5885 5886 5886 5887 5887 5888 5889 5890 5890 5891 5892 5893 5893 5893 5893 5893 5892 5891 5891 5889 5888 5886 5886 5885 5883 5882 5882 5881 5880 5878 5875 5874
5863 5866 5868 5870 5872 5874 5877 5878 5879 5881 5883 5884 5886 5886 5886 5887 5888 5890 5891 5892 5892 5893 5894 5894 5895 5895 5894 5893 5893 5892 5892 5891 5889 5888 5886 5885 5884 5884 5882 5881 5879 5876 5876
5862 5864 5866 5868 5870 5873 5875 5876 5878 5879 5881 5883 5884 5885 5886 5887 5888 5889 5891 5893 5893 5894 5894 5895 5896 5896 5896 5896 5896 5895 5894 5893 5893 5891 5888 5886 5885 5883 5882 5881 5879 5878 5876
5861 5862 5863 5866 5868 5870 5873 5875 5876 5878 5880 5881 5883 5884 5884 5886 5887 5889 5890 5892 5893 5894 5895 5896 5896 5897 5897 5897 5896 5896 5896 5895 5894 5891 5889 5887 5886 5885 5883 5882 5880 5878 5876
5857 5860 5862 5863 5865 5867 5870 5872 5875 5876 5878 5880 5881 5882 5883 5884 5886 5888 5890 5891 5892 5893 5895 5895 5896 5897 5897 5897 5897 5897 5896 5895 5894 5892 5891 5889 5887 5886 5884 5882 5881 5879 5877
5853 5856 5858 5861 5861 5863 5866 5869 5871 5874 5876 5878 5879 5880 5881 5882 5883 5886 5888 5889 5890 5891 5894 5895 5896 5896 5897 5897 5896 5896 5895 5895 5894 5893 5892 5890 5888 5886 5884 5883 5881 5879 5878
5849 5850 5853 5857 5859 5860 5861 5864 5868 5871 5873 5875 5877 5878 5879 5880 5881 5883 5886 5887 5889 5890 5892 5894 5894 5895 5896 5895 5895 5895 5894 5893 5892 5892 5891 5889 5887 5886 5884 5883 5881 5879 5878
5843 5845 5848 5851 5854 5856 5858 5859 5862 5866 5869 5872 5874 5875 5877 5878 5879 5881 5884 5885 5887 5888 5890 5891 5892 5893 5894 5894 5894 5893 5893 5892 5891 5891 5890 5889 5887 5885 5884 5883 5881 5879 5878
5836 5839 5841 5845 5848 5852 5854 5856 5857 5860 5865 5868 5870 5872 5874 5875 5876 5878 5880 5883 5885 5886 5888 5888 5890 5891 5892 5892 5892 5892 5891 5891 5890 5890 5889 5888 5886 5885 5884 5882 5880 5879 5877
5829 5833 5835 5838 5842 5846 5849 5852 5854 5856 5859 5864 5867 5869 5870 5872 5874 5875 5878 5879 5882 5884 5886 5887 5888 5889 5889 5889 5890 5889 5889 5889 5889 5888 5888 5888 5886 5885 5883 5881 5879 5878 5876
5819 5824 5828 5830 5834 5838 5842 5846 5849 5851 5855 5859 5862 5865 5867 5869 5871 5873 5875 5877 5879 5882 5883 5885 5886 5887 5887 5888 5888 5887 5887 5888 5888 5888 5887 5887 5886 5884 5883 5881 5879 5877 5875
5808 5812 5819 5821 5825 5830 5834 5838 5842 5845 5849 5853 5857 5860 5863 5865 5867 5870 5873 5875 5877 5879 5881 5882 5883 5884 5885 5886 5887 5887 5887 5886 5887 5886 5886 5886 5885 5884 5882 5880 5878 5877 5874
5794 5797 5803 5809 5813 5820 5826 5830 5835 5839 5842 5847 5852 5855 5858 5861 5863 5866 5869 5872 5874 5876 5878 5879 5881 5882 5883 5884 5885 5886 5886 5886 5886 5885 5885 5885 5884 5883 5882 5880 5877 5875 5874
5780 5781 5784 5790 5800 5806 5814 5821 5825 5831 5836 5841 5846 5850 5854 5857 5859 5862 5865 5868 5871 5873 5875 5876 5878 5880 5881 5882 5883 5884 5885 5885 5885 5885 5883 5882 5882 5881 5880 5879 5877 5875 5873
5764 5762 5763 5770 5781 5791 5800 5808 5815 5821 5828 5834 5839 5844 5850 5854 5856 5859 5861 5864 5867 5869 5871 5873 5875 5877 5879 5880 5881 5882 5882 5883 5883 5883 5882 5880 5879 5879 5878 5877 5875 5874 5873
5746 5744 5751 5754 5763 5777 5787 5796 5805 5812 5819 5826 5832 5837 5843 5849 5853 5855 5858 5860 5863 5866 5868 5871 5872 5874 5876 5877 5878 5879 5879 5880 5880 5880 5879 5879 5876 5876 5875 5874 5873 5872 5870
5731 5724 5730 5727 5747 5763 5775 5786 5795 5803 5811 5818 5824 5831 5836 5842 5848 5851 5854 5857 5860 5862 5865 5867 5869 5870 5872 5874 5874 5875 5875 5876 5876 5876 5876 5875 5874 5873 5872 5871 5869 5868 5866
5721 5717 5724 5732 5744 5756 5764 5775 5785 5793 5802 5809 5816 5824 5830 5834 5841 5846 5850 5853 5855 5858 5861 5863 5865 5866 5867 5869 5870 5870 5870 5871 5871 5871 5872 5871 5869 5868 5868 5866 5865 5864 5863
5727 5727 5730 5734 5742 5753 5762 5768 5777 5785 5793 5801 5809 5815 5822 5827 5833 5839 5844 5847 5851 5853 5856 5858 5859 5861 5863 5864 5865 5865 5866 5865 5866 5865 5865 5866 5864 5863 5862 5861 5859 5858 5857
5724 5726 5726 5732 5741 5745 5753 5762 5770 5775 5783 5792 5801 5808 5814 5820 5826 5832 5836 5840 5843 5846 5849 5851 5854 5855 5856 5858 5858 5859 5859 5859 5860 5859 5859 5858 5858 5857 5856 5856 5854 5852 5851
5717 5718 5723 5723 5726 5733 5743 5755 5763 5772 5781 5790 5796 5802 5808 5814 5819 5825 5829 5834 5835 5839 5842 5845 5846 5848 5849 5851 5852 5851 5852 5852 5853 5852 5852 5852 5851 5850 5849 5848 5847 5846 5845
5712 5712 5713 5714 5717 5729 5738 5751 5760 5768 5773 5781 5788 5794 5801 5807 5812 5817 5822 5826 5829 5831 5834 5837 5839 5840 5842 5843 5844 5844 5845 5845 5845 5844 5844 5844 5843 5842 5842 5841 5840 5838 5836
5705 5707 5703 5692 5709 5716 5729 5741 5750 5757 5761 5766 5777 5786 5794 5799 5803 5808 5814 5818 5821 5824 5826 5828 5831 5832 5833 5835 5835 5836 5836 5837 5835 5836 5835 5835 5834 5833 5833 5833 5831 5830 5828
5699 5699 5698 5699 5704 5709 5722 5732 5742 5752 5760 5769 5776 5780 5785 5790 5795 5800 5805 5809 5812 5815 5817 5818 5821 5822 5824 5825 5825 5826 5827 5827 5826 5826 5826 5825 5824 5824 5824 5824 5822 5821 5819
5693 5696 5697 5698 5702 5708 5716 5725 5732 5742 5751 5757 5763 5768 5775 5780 5785 5790 5794 5798 5801 5805 5807 5808 5810 5813 5814 5816 5816 5816 5816 5818 5817 5816 5816 5816 5814 5813 5813 5814 5812 5810 5809
5687 5691 5695 5695 5700 5706 5712 5718 5724 5734 5742 5749 5755 5760 5766 5771 5776 5780 5783 5788 5791 5794 5796 5797 5800 5803 5803 5805 5806 5806 5807 5807 5806 5806 5806 5806 5804 5803 5803 5803 5801 5799 5797